| time (UTC) | temp F | wind direction | speed MPH | gust MPH | rain 1hr in | rain 24hr in | rain mn in | humidity % | barometer mb |
| 20260507062510 | 47 | 84 | 0.0 | 3.0 | 0.00 | 0.42 | 0.01 | 94 | 1013.0 |
| 20260507061536 | 47 | 53 | 0.0 | 2.0 | 0.00 | 0.42 | 0.01 | 93 | 1013.1 |
| 20260507061006 | 47 | 352 | 0.0 | 0.0 | 0.00 | 0.42 | 0.01 | 93 | 1013.2 |
| 20260507060504 | 47 | 352 | 0.0 | 0.0 | 0.00 | 0.42 | 0.01 | 93 | 1013.3 |
| 20260507060007 | 48 | 30 | 0.0 | 3.0 | 0.00 | 0.42 | 0.01 | 93 | 1013.5 |
| 20260507055503 | 48 | 30 | 0.0 | 4.0 | 0.01 | 0.42 | 0.01 | 92 | 1013.6 |
| 20260507055009 | 48 | 49 | 1.0 | 4.0 | 0.01 | 0.42 | 0.01 | 93 | 1013.6 |
| 20260507054511 | 48 | 45 | 1.0 | 3.0 | 0.01 | 0.42 | 0.01 | 93 | 1013.6 |
| 20260507053507 | 48 | 38 | 0.0 | 8.0 | 0.01 | 0.42 | 0.01 | 93 | 1013.9 |
| 20260507053016 | 48 | 304 | 1.0 | 8.0 | 0.01 | 0.42 | 0.01 | 92 | 1013.8 |
| 20260507052506 | 48 | 298 | 2.0 | 5.0 | 0.01 | 0.42 | 0.01 | 92 | 1013.8 |
| 20260507052006 | 48 | 273 | 2.0 | 7.0 | 0.01 | 0.42 | 0.01 | 93 | 1013.7 |
| 20260507051521 | 48 | 323 | 2.0 | 8.0 | 0.01 | 0.42 | 0.01 | 92 | 1013.8 |
| 20260507051010 | 48 | 265 | 3.0 | 12.0 | 0.01 | 0.42 | 0.01 | 91 | 1013.7 |
| 20260507050507 | 49 | 283 | 1.0 | 12.0 | 0.01 | 0.42 | 0.01 | 92 | 1013.8 |
| 20260507050021 | 49 | 319 | 7.0 | 12.0 | 0.01 | 0.42 | 0.01 | 91 | 1013.6 |
| 20260507045503 | 49 | 328 | 4.0 | 12.0 | 0.00 | 0.41 | 0.00 | 91 | 1013.5 |
| 20260507045004 | 49 | 311 | 5.0 | 12.0 | 0.00 | 0.41 | 0.00 | 91 | 1013.7 |
| 20260507044505 | 50 | 5 | 2.0 | 6.0 | 0.00 | 0.41 | 0.00 | 93 | 1013.4 |
| 20260507044003 | 50 | 323 | 1.0 | 4.0 | 0.00 | 0.41 | 0.00 | 94 | 1013.3 |
| 20260507043503 | 50 | 326 | 0.0 | 3.0 | 0.00 | 0.41 | 0.00 | 93 | 1013.2 |
| 20260507043012 | 50 | 238 | 0.0 | 3.0 | 0.00 | 0.41 | 0.00 | 93 | 1013.4 |
| 20260507042506 | 50 | 238 | 1.0 | 3.0 | 0.00 | 0.41 | 0.00 | 93 | 1013.1 |
| 20260507042009 | 50 | 238 | 1.0 | 3.0 | 0.00 | 0.41 | 0.00 | 93 | 1012.9 |
| 20260507041519 | 50 | 324 | 0.0 | 3.0 | 0.00 | 0.41 | 0.00 | 92 | 1012.9 |
| 20260507041007 | 50 | 331 | 1.0 | 3.0 | 0.00 | 0.41 | 0.00 | 92 | 1013.0 |
| 20260507040507 | 51 | 225 | 0.0 | 2.0 | 0.00 | 0.41 | 0.00 | 92 | 1012.9 |
| 20260507040021 | 51 | 157 | 0.0 | 4.0 | 0.00 | 0.41 | 0.00 | 91 | 1013.0 |
| 20260507035507 | 51 | 332 | 0.0 | 4.0 | 0.00 | 0.41 | 0.41 | 91 | 1012.9 |
| 20260507035007 | 51 | 336 | 1.0 | 4.0 | 0.00 | 0.41 | 0.41 | 91 | 1013.0 |
| 20260507034526 | 51 | 201 | 1.0 | 4.0 | 0.00 | 0.41 | 0.41 | 92 | 1013.1 |
| 20260507034007 | 51 | 352 | 0.0 | 4.0 | 0.00 | 0.41 | 0.41 | 91 | 1013.1 |
| 20260507033505 | 51 | 319 | 2.0 | 6.0 | 0.00 | 0.41 | 0.41 | 91 | 1012.9 |
| 20260507033010 | 51 | 261 | 0.0 | 6.0 | 0.00 | 0.41 | 0.41 | 91 | 1012.6 |
| 20260507032504 | 51 | 150 | 2.0 | 14.0 | 0.00 | 0.41 | 0.41 | 91 | 1012.1 |
| 20260507032005 | 51 | 314 | 1.0 | 14.0 | 0.00 | 0.41 | 0.41 | 90 | 1012.9 |
| 20260507031515 | 51 | 333 | 5.0 | 11.0 | 0.00 | 0.41 | 0.41 | 90 | 1013.7 |
| 20260507031005 | 51 | 320 | 4.0 | 8.0 | 0.00 | 0.41 | 0.41 | 91 | 1013.7 |
| 20260507030505 | 51 | 251 | 0.0 | 5.0 | 0.00 | 0.41 | 0.41 | 90 | 1013.3 |
| 20260507030023 | 51 | 195 | 0.0 | 8.0 | 0.00 | 0.41 | 0.41 | 90 | 1012.5 |
| 20260507025505 | 51 | 244 | 2.0 | 10.0 | 0.00 | 0.41 | 0.41 | 90 | 1013.3 |
| 20260507025006 | 52 | 290 | 6.0 | 10.0 | 0.00 | 0.41 | 0.41 | 90 | 1013.7 |
| 20260507024524 | 52 | 278 | 2.0 | 11.0 | 0.00 | 0.41 | 0.41 | 91 | 1013.6 |
| 20260507024008 | 52 | 321 | 5.0 | 11.0 | 0.00 | 0.41 | 0.41 | 90 | 1013.4 |
| 20260507023512 | 52 | 325 | 5.0 | 12.0 | 0.00 | 0.41 | 0.41 | 91 | 1013.2 |
| 20260507023029 | 52 | 194 | 1.0 | 12.0 | 0.00 | 0.41 | 0.41 | 92 | 1012.8 |
| 20260507022509 | 52 | 321 | 8.0 | 12.0 | 0.00 | 0.41 | 0.41 | 91 | 1013.3 |
| 20260507022005 | 52 | 302 | 5.0 | 10.0 | 0.00 | 0.41 | 0.41 | 92 | 1013.3 |
| 20260507021516 | 52 | 31 | 4.0 | 9.0 | 0.00 | 0.41 | 0.41 | 92 | 1013.3 |
| 20260507021007 | 52 | 327 | 2.0 | 5.0 | 0.00 | 0.41 | 0.41 | 93 | 1012.9 |
| 20260507020506 | 52 | 177 | 0.0 | 5.0 | 0.00 | 0.41 | 0.41 | 93 | 1012.5 |
| 20260507020018 | 52 | 325 | 0.0 | 5.0 | 0.00 | 0.41 | 0.41 | 92 | 1012.2 |
| 20260507015508 | 52 | 313 | 0.0 | 5.0 | 0.00 | 0.41 | 0.41 | 92 | 1012.7 |
| 20260507015006 | 52 | 307 | 1.0 | 3.0 | 0.00 | 0.41 | 0.41 | 92 | 1012.8 |
| 20260507014524 | 52 | 309 | 0.0 | 8.0 | 0.00 | 0.41 | 0.41 | 93 | 1012.8 |
| 20260507014009 | 52 | 274 | 2.0 | 9.0 | 0.00 | 0.41 | 0.41 | 92 | 1012.8 |
| 20260507013506 | 52 | 327 | 6.0 | 9.0 | 0.00 | 0.41 | 0.41 | 92 | 1012.8 |
| 20260507013034 | 52 | 322 | 3.0 | 5.0 | 0.00 | 0.41 | 0.41 | 93 | 1012.6 |
| 20260507012513 | 52 | 316 | 2.0 | 5.0 | 0.01 | 0.41 | 0.41 | 94 | 1012.5 |
| 20260507012012 | 52 | 301 | 1.0 | 3.0 | 0.01 | 0.41 | 0.41 | 93 | 1012.2 |
| 20260507011536 | 52 | 182 | 0.0 | 3.0 | 0.01 | 0.41 | 0.41 | 93 | 1011.8 |
| 20260507011009 | 53 | 213 | 2.0 | 4.0 | 0.01 | 0.41 | 0.41 | 93 | 1012.2 |
| 20260507010509 | 53 | 313 | 1.0 | 5.0 | 0.01 | 0.41 | 0.41 | 93 | 1012.5 |
| 20260507010014 | 53 | 321 | 2.0 | 5.0 | 0.01 | 0.41 | 0.41 | 92 | 1012.5 |
| 20260507005507 | 53 | 315 | 1.0 | 5.0 | 0.01 | 0.41 | 0.41 | 92 | 1012.5 |
| 20260507005006 | 53 | 311 | 2.0 | 5.0 | 0.01 | 0.41 | 0.41 | 93 | 1012.4 |
| 20260507004519 | 53 | 293 | 2.0 | 4.0 | 0.01 | 0.41 | 0.41 | 93 | 1012.4 |
| 20260507004003 | 53 | 311 | 2.0 | 4.0 | 0.02 | 0.41 | 0.41 | 93 | 1012.2 |
| 20260507003503 | 53 | 325 | 0.0 | 2.0 | 0.02 | 0.41 | 0.41 | 93 | 1012.1 |
| 20260507003007 | 53 | 325 | 0.0 | 2.0 | 0.02 | 0.41 | 0.41 | 93 | 1011.8 |
| 20260507002503 | 53 | 325 | 0.0 | 3.0 | 0.01 | 0.40 | 0.40 | 92 | 1012.2 |
| 20260507002003 | 53 | 325 | 1.0 | 3.0 | 0.01 | 0.40 | 0.40 | 92 | 1012.4 |
| 20260507001505 | 53 | 325 | 0.0 | 2.0 | 0.01 | 0.40 | 0.40 | 92 | 1012.0 |
| 20260507001006 | 53 | 324 | 0.0 | 2.0 | 0.01 | 0.40 | 0.40 | 92 | 1012.4 |
| 20260507000503 | 54 | 325 | 0.0 | 3.0 | 0.01 | 0.40 | 0.40 | 91 | 1012.6 |
| 20260507000014 | 54 | 325 | 0.0 | 3.0 | 0.01 | 0.40 | 0.40 | 91 | 1012.4 |
| 20260506235504 | 54 | 325 | 0.0 | 2.0 | 0.01 | 0.40 | 0.40 | 92 | 1012.4 |
| 20260506235006 | 54 | 325 | 0.0 | 2.0 | 0.01 | 0.40 | 0.40 | 92 | 1012.7 |
| 20260506234519 | 54 | 324 | 0.0 | 2.0 | 0.01 | 0.40 | 0.40 | 92 | 1012.6 |
| 20260506234006 | 54 | 325 | 0.0 | 2.0 | 0.00 | 0.39 | 0.39 | 92 | 1012.4 |
| 20260506233507 | 54 | 325 | 0.0 | 1.0 | 0.00 | 0.39 | 0.39 | 92 | 1012.5 |
| 20260506233020 | 54 | 324 | 0.0 | 3.0 | 0.00 | 0.39 | 0.39 | 91 | 1012.4 |
| 20260506232503 | 54 | 325 | 0.0 | 3.0 | 0.00 | 0.39 | 0.39 | 91 | 1012.4 |
| 20260506232004 | 54 | 325 | 1.0 | 2.0 | 0.00 | 0.39 | 0.39 | 92 | 1012.6 |
| 20260506231504 | 55 | 325 | 0.0 | 2.0 | 0.00 | 0.39 | 0.39 | 91 | 1012.4 |
| 20260506231002 | 55 | 324 | 0.0 | 3.0 | 0.00 | 0.39 | 0.39 | 91 | 1012.4 |
| 20260506230504 | 55 | 324 | 1.0 | 3.0 | 0.00 | 0.39 | 0.39 | 91 | 1012.5 |
| 20260506230011 | 55 | 325 | 1.0 | 3.0 | 0.00 | 0.39 | 0.39 | 91 | 1012.5 |
| 20260506225503 | 55 | 324 | 0.0 | 4.0 | 0.00 | 0.39 | 0.39 | 91 | 1012.4 |
| 20260506225004 | 55 | 324 | 3.0 | 4.0 | 0.00 | 0.39 | 0.39 | 90 | 1012.3 |
| 20260506224529 | 55 | 273 | 1.0 | 8.0 | 0.00 | 0.39 | 0.39 | 90 | 1012.3 |
| 20260506224003 | 55 | 294 | 2.0 | 9.0 | 0.00 | 0.39 | 0.39 | 89 | 1012.1 |
| 20260506223507 | 55 | 319 | 5.0 | 10.0 | 0.00 | 0.39 | 0.39 | 88 | 1012.1 |
| 20260506223016 | 55 | 322 | 3.0 | 10.0 | 0.00 | 0.39 | 0.39 | 89 | 1012.2 |
| 20260506222507 | 56 | 295 | 5.0 | 10.0 | 0.00 | 0.39 | 0.39 | 89 | 1011.9 |
| 20260506222007 | 56 | 335 | 3.0 | 10.0 | 0.00 | 0.39 | 0.39 | 88 | 1012.0 |
| 20260506221522 | 56 | 306 | 5.0 | 13.0 | 0.00 | 0.39 | 0.39 | 89 | 1012.0 |
| 20260506221011 | 56 | 328 | 8.0 | 13.0 | 0.00 | 0.39 | 0.39 | 88 | 1012.1 |
| 20260506220502 | 56 | 320 | 5.0 | 12.0 | 0.00 | 0.39 | 0.39 | 89 | 1012.0 |
| 20260506220005 | 56 | 323 | 3.0 | 11.0 | 0.00 | 0.39 | 0.39 | 88 | 1011.7 |
| 20260506215504 | 56 | 306 | 4.0 | 11.0 | 0.00 | 0.39 | 0.39 | 89 | 1011.8 |
| 20260506215003 | 57 | 294 | 6.0 | 14.0 | 0.00 | 0.39 | 0.39 | 89 | 1011.7 |
| 20260506214509 | 56 | 329 | 6.0 | 14.0 | 0.00 | 0.39 | 0.39 | 89 | 1011.7 |
| 20260506214004 | 57 | 305 | 5.0 | 12.0 | 0.00 | 0.39 | 0.39 | 89 | 1011.7 |
| 20260506213504 | 56 | 19 | 4.0 | 16.0 | 0.00 | 0.39 | 0.39 | 90 | 1011.4 |
| 20260506213020 | 56 | 296 | 9.0 | 16.0 | 0.00 | 0.39 | 0.39 | 89 | 1011.3 |
| 20260506212508 | 56 | 296 | 7.0 | 13.0 | 0.00 | 0.39 | 0.39 | 90 | 1011.4 |
| 20260506212008 | 56 | 326 | 7.0 | 15.0 | 0.00 | 0.39 | 0.39 | 91 | 1011.4 |
| 20260506211519 | 56 | 293 | 10.0 | 15.0 | 0.01 | 0.39 | 0.39 | 90 | 1011.4 |
| 20260506211009 | 56 | 304 | 7.0 | 14.0 | 0.01 | 0.39 | 0.39 | 91 | 1011.4 |
| 20260506210506 | 57 | 313 | 6.0 | 11.0 | 0.01 | 0.39 | 0.39 | 90 | 1011.4 |
| 20260506210027 | 57 | 334 | 6.0 | 11.0 | 0.01 | 0.39 | 0.39 | 90 | 1011.1 |
| 20260506205521 | 57 | 321 | 6.0 | 11.0 | 0.01 | 0.39 | 0.39 | 89 | 1010.9 |
| 20260506205003 | 57 | 320 | 7.0 | 15.0 | 0.01 | 0.39 | 0.39 | 90 | 1010.9 |
| 20260506204507 | 57 | 298 | 6.0 | 15.0 | 0.01 | 0.39 | 0.39 | 90 | 1011.0 |
| 20260506204009 | 57 | 320 | 10.0 | 17.0 | 0.01 | 0.39 | 0.39 | 88 | 1011.0 |
| 20260506203502 | 57 | 316 | 11.0 | 17.0 | 0.01 | 0.39 | 0.39 | 88 | 1010.9 |
| 20260506203012 | 58 | 309 | 11.0 | 15.0 | 0.01 | 0.39 | 0.39 | 88 | 1010.9 |
| 20260506202505 | 58 | 316 | 8.0 | 13.0 | 0.01 | 0.39 | 0.39 | 90 | 1010.9 |
| 20260506202007 | 58 | 329 | 6.0 | 13.0 | 0.01 | 0.39 | 0.39 | 91 | 1010.8 |
| 20260506201522 | 58 | 302 | 5.0 | 12.0 | 0.00 | 0.38 | 0.38 | 90 | 1010.7 |
| 20260506201007 | 59 | 272 | 7.0 | 16.0 | 0.00 | 0.38 | 0.38 | 89 | 1010.7 |
| 20260506200507 | 59 | 327 | 9.0 | 16.0 | 0.00 | 0.38 | 0.38 | 89 | 1010.5 |
| 20260506200025 | 59 | 336 | 9.0 | 17.0 | 0.00 | 0.38 | 0.38 | 89 | 1010.6 |
| 20260506195506 | 59 | 313 | 8.0 | 17.0 | 0.00 | 0.38 | 0.38 | 90 | 1010.4 |
| 20260506195010 | 59 | 315 | 6.0 | 10.0 | 0.00 | 0.38 | 0.38 | 91 | 1010.6 |
| 20260506194523 | 59 | 327 | 2.0 | 8.0 | 0.00 | 0.38 | 0.38 | 90 | 1010.4 |
| 20260506194008 | 60 | 309 | 4.0 | 8.0 | 0.00 | 0.38 | 0.38 | 89 | 1010.3 |
| 20260506193508 | 60 | 306 | 3.0 | 11.0 | 0.00 | 0.38 | 0.38 | 89 | 1010.3 |
| 20260506193010 | 60 | 309 | 5.0 | 11.0 | 0.00 | 0.38 | 0.38 | 88 | 1010.3 |
| 20260506192503 | 60 | 311 | 4.0 | 10.0 | 0.00 | 0.38 | 0.38 | 89 | 1010.3 |
| 20260506192009 | 60 | 325 | 5.0 | 10.0 | 0.00 | 0.38 | 0.38 | 87 | 1010.3 |
| 20260506191517 | 60 | 317 | 3.0 | 8.0 | 0.00 | 0.38 | 0.38 | 87 | 1010.3 |
| 20260506191007 | 60 | 316 | 3.0 | 12.0 | 0.00 | 0.38 | 0.38 | 88 | 1010.2 |
| 20260506190508 | 60 | 350 | 6.0 | 12.0 | 0.00 | 0.38 | 0.38 | 87 | 1010.3 |
| 20260506190029 | 60 | 5 | 3.0 | 10.0 | 0.00 | 0.38 | 0.38 | 89 | 1010.3 |
| 20260506185506 | 60 | 315 | 4.0 | 11.0 | 0.00 | 0.38 | 0.38 | 89 | 1010.3 |
| 20260506185009 | 60 | 308 | 6.0 | 11.0 | 0.00 | 0.38 | 0.38 | 89 | 1010.3 |
| 20260506184523 | 60 | 314 | 8.0 | 11.0 | 0.00 | 0.38 | 0.38 | 88 | 1010.3 |
| 20260506184008 | 60 | 310 | 5.0 | 11.0 | 0.00 | 0.38 | 0.38 | 90 | 1010.2 |
| 20260506183508 | 60 | 320 | 7.0 | 13.0 | 0.00 | 0.38 | 0.38 | 90 | 1010.3 |
| 20260506183025 | 60 | 279 | 7.0 | 14.0 | 0.00 | 0.38 | 0.38 | 89 | 1010.3 |
| 20260506182510 | 60 | 338 | 8.0 | 16.0 | 0.00 | 0.38 | 0.38 | 89 | 1010.3 |
| 20260506182015 | 61 | 281 | 8.0 | 16.0 | 0.00 | 0.38 | 0.38 | 87 | 1010.2 |
| 20260506181512 | 61 | 336 | 5.0 | 9.0 | 0.00 | 0.38 | 0.38 | 87 | 1010.3 |
| 20260506181004 | 62 | 336 | 4.0 | 10.0 | 0.00 | 0.38 | 0.38 | 87 | 1010.2 |
| 20260506180505 | 62 | 311 | 4.0 | 10.0 | 0.00 | 0.38 | 0.38 | 86 | 1010.2 |
| 20260506180016 | 63 | 315 | 4.0 | 12.0 | 0.00 | 0.38 | 0.38 | 85 | 1010.3 |
| 20260506175507 | 63 | 254 | 3.0 | 14.0 | 0.00 | 0.38 | 0.38 | 86 | 1010.2 |
| 20260506175008 | 62 | 344 | 9.0 | 16.0 | 0.00 | 0.38 | 0.38 | 87 | 1010.2 |
| 20260506174523 | 62 | 27 | 8.0 | 16.0 | 0.00 | 0.38 | 0.38 | 85 | 1010.1 |
| 20260506174007 | 62 | 310 | 4.0 | 13.0 | 0.00 | 0.38 | 0.38 | 88 | 1010.2 |
| 20260506173508 | 61 | 286 | 4.0 | 13.0 | 0.00 | 0.38 | 0.38 | 90 | 1010.2 |
| 20260506173027 | 61 | 254 | 6.0 | 13.0 | 0.00 | 0.38 | 0.38 | 89 | 1010.3 |
| 20260506172507 | 61 | 341 | 7.0 | 13.0 | 0.00 | 0.38 | 0.38 | 88 | 1010.2 |
| 20260506172010 | 62 | 300 | 3.0 | 13.0 | 0.00 | 0.38 | 0.38 | 88 | 1010.3 |
| 20260506171527 | 63 | 326 | 4.0 | 8.0 | 0.00 | 0.38 | 0.38 | 87 | 1010.3 |
| 20260506171010 | 63 | 298 | 4.0 | 12.0 | 0.00 | 0.38 | 0.38 | 87 | 1010.3 |
| 20260506170513 | 62 | 292 | 6.0 | 12.0 | 0.00 | 0.38 | 0.38 | 87 | 1010.3 |
| 20260506170016 | 62 | 319 | 5.0 | 12.0 | 0.00 | 0.38 | 0.38 | 87 | 1010.2 |
| 20260506165510 | 62 | 215 | 4.0 | 13.0 | 0.00 | 0.38 | 0.38 | 86 | 1010.3 |
| 20260506165007 | 62 | 282 | 4.0 | 13.0 | 0.00 | 0.38 | 0.38 | 87 | 1010.2 |
| 20260506164518 | 62 | 263 | 3.0 | 11.0 | 0.00 | 0.38 | 0.38 | 86 | 1010.1 |
| 20260506164009 | 62 | 236 | 4.0 | 15.0 | 0.00 | 0.38 | 0.38 | 88 | 1010.2 |
| 20260506163507 | 62 | 304 | 8.0 | 22.0 | 0.00 | 0.38 | 0.38 | 85 | 1010.1 |
| 20260506163039 | 62 | 261 | 9.0 | 22.0 | 0.00 | 0.38 | 0.38 | 84 | 1010.3 |
| 20260506162507 | 62 | 290 | 9.0 | 19.0 | 0.00 | 0.38 | 0.38 | 83 | 1010.1 |
| 20260506162014 | 62 | 238 | 7.0 | 19.0 | 0.00 | 0.38 | 0.38 | 82 | 1010.0 |
| 20260506161528 | 62 | 315 | 6.0 | 26.0 | 0.00 | 0.38 | 0.38 | 82 | 1010.1 |
| 20260506161007 | 63 | 260 | 11.0 | 26.0 | 0.00 | 0.38 | 0.38 | 81 | 1010.2 |
| 20260506160509 | 63 | 266 | 11.0 | 24.0 | 0.00 | 0.38 | 0.38 | 81 | 1010.1 |
| 20260506160028 | 63 | 263 | 9.0 | 20.0 | 0.00 | 0.38 | 0.38 | 81 | 1009.9 |
| 20260506155502 | 63 | 228 | 6.0 | 20.0 | 0.00 | 0.38 | 0.38 | 81 | 1009.8 |
| 20260506155002 | 63 | 275 | 9.0 | 19.0 | 0.00 | 0.38 | 0.38 | 82 | 1009.7 |
| 20260506154509 | 63 | 233 | 5.0 | 19.0 | 0.00 | 0.38 | 0.38 | 82 | 1009.8 |
| 20260506154003 | 63 | 293 | 5.0 | 24.0 | 0.00 | 0.38 | 0.38 | 82 | 1009.7 |
| 20260506153503 | 63 | 302 | 7.0 | 24.0 | 0.00 | 0.38 | 0.38 | 83 | 1009.6 |
| 20260506153004 | 63 | 190 | 8.0 | 25.0 | 0.00 | 0.38 | 0.38 | 82 | 1009.8 |
| 20260506152503 | 63 | 269 | 9.0 | 25.0 | 0.00 | 0.38 | 0.38 | 83 | 1009.8 |
| 20260506152006 | 63 | 233 | 7.0 | 17.0 | 0.00 | 0.38 | 0.38 | 83 | 1009.8 |
| 20260506151504 | 63 | 292 | 4.0 | 19.0 | 0.00 | 0.38 | 0.38 | 83 | 1009.8 |
| 20260506151003 | 63 | 329 | 9.0 | 19.0 | 0.00 | 0.38 | 0.38 | 83 | 1009.6 |
| 20260506150504 | 63 | 269 | 9.0 | 17.0 | 0.00 | 0.38 | 0.38 | 82 | 1009.6 |
| 20260506150008 | 63 | 232 | 5.0 | 12.0 | 0.00 | 0.38 | 0.38 | 82 | 1009.7 |
| 20260506145505 | 63 | 209 | 5.0 | 12.0 | 0.00 | 0.38 | 0.38 | 83 | 1009.5 |
| 20260506145005 | 63 | 270 | 5.0 | 12.0 | 0.00 | 0.38 | 0.38 | 82 | 1009.6 |
| 20260506144506 | 63 | 294 | 6.0 | 14.0 | 0.00 | 0.38 | 0.38 | 83 | 1009.5 |
| 20260506144004 | 63 | 263 | 7.0 | 15.0 | 0.00 | 0.38 | 0.38 | 84 | 1009.4 |
| 20260506143507 | 62 | 201 | 7.0 | 18.0 | 0.00 | 0.38 | 0.38 | 83 | 1009.4 |
| 20260506143004 | 62 | 251 | 3.0 | 18.0 | 0.00 | 0.38 | 0.38 | 84 | 1009.3 |
| 20260506142503 | 62 | 200 | 8.0 | 18.0 | 0.00 | 0.38 | 0.38 | 83 | 1009.4 |
| 20260506142004 | 62 | 271 | 5.0 | 23.0 | 0.00 | 0.38 | 0.38 | 86 | 1009.5 |
| 20260506141504 | 61 | 248 | 5.0 | 23.0 | 0.00 | 0.38 | 0.38 | 87 | 1009.4 |
| 20260506141007 | 61 | 182 | 5.0 | 19.0 | 0.00 | 0.38 | 0.38 | 87 | 1009.3 |
| 20260506140504 | 61 | 254 | 7.0 | 18.0 | 0.01 | 0.38 | 0.38 | 87 | 1009.3 |
| 20260506140019 | 60 | 205 | 7.0 | 18.0 | 0.01 | 0.38 | 0.38 | 87 | 1009.3 |
| 20260506135503 | 60 | 286 | 4.0 | 15.0 | 0.01 | 0.38 | 0.38 | 89 | 1009.3 |
| 20260506135006 | 59 | 269 | 7.0 | 15.0 | 0.02 | 0.38 | 0.38 | 90 | 1009.3 |
| 20260506134510 | 58 | 186 | 2.0 | 12.0 | 0.02 | 0.38 | 0.38 | 93 | 1009.4 |
| 20260506134005 | 57 | 244 | 1.0 | 7.0 | 0.03 | 0.38 | 0.38 | 94 | 1009.5 |
| 20260506133503 | 57 | 111 | 1.0 | 3.0 | 0.03 | 0.38 | 0.38 | 94 | 1009.4 |
| 20260506133013 | 57 | 234 | 1.0 | 4.0 | 0.03 | 0.38 | 0.38 | 93 | 1009.5 |
| 20260506132506 | 57 | 42 | 1.0 | 5.0 | 0.03 | 0.38 | 0.38 | 93 | 1009.5 |
| 20260506132003 | 57 | 103 | 0.0 | 6.0 | 0.04 | 0.38 | 0.38 | 92 | 1009.5 |
| 20260506131502 | 56 | 252 | 1.0 | 7.0 | 0.04 | 0.38 | 0.38 | 92 | 1009.5 |
| 20260506131005 | 56 | 209 | 3.0 | 7.0 | 0.06 | 0.38 | 0.38 | 93 | 1009.5 |
| 20260506130510 | 56 | 174 | 3.0 | 7.0 | 0.05 | 0.37 | 0.37 | 93 | 1009.5 |
| 20260506130025 | 56 | 179 | 3.0 | 7.0 | 0.07 | 0.37 | 0.37 | 93 | 1009.4 |
| 20260506125004 | 56 | 185 | 4.0 | 8.0 | 0.08 | 0.36 | 0.36 | 93 | 1009.5 |
| 20260506124528 | 56 | 42 | 3.0 | 8.0 | 0.09 | 0.36 | 0.36 | 93 | 1009.4 |
| 20260506124006 | 56 | 219 | 3.0 | 8.0 | 0.11 | 0.35 | 0.35 | 93 | 1009.6 |
| 20260506123505 | 56 | 182 | 0.0 | 9.0 | 0.12 | 0.35 | 0.35 | 93 | 1009.7 |
| 20260506123012 | 56 | 225 | 3.0 | 9.0 | 0.14 | 0.35 | 0.35 | 93 | 1009.5 |
| 20260506122506 | 56 | 242 | 2.0 | 8.0 | 0.15 | 0.35 | 0.35 | 93 | 1009.5 |
| 20260506122007 | 56 | 349 | 0.0 | 5.0 | 0.14 | 0.34 | 0.34 | 93 | 1009.4 |
| 20260506121515 | 56 | 344 | 0.0 | 4.0 | 0.15 | 0.34 | 0.34 | 93 | 1009.4 |
| 20260506121006 | 56 | 320 | 1.0 | 9.0 | 0.13 | 0.32 | 0.32 | 93 | 1009.5 |
| 20260506120504 | 56 | 328 | 3.0 | 12.0 | 0.14 | 0.32 | 0.32 | 92 | 1009.3 |
| 20260506120003 | 56 | 316 | 5.0 | 12.0 | 0.12 | 0.30 | 0.30 | 93 | 1009.3 |
| 20260506115503 | 56 | 240 | 2.0 | 8.0 | 0.11 | 0.29 | 0.29 | 93 | 1009.3 |
| 20260506115003 | 56 | 329 | 4.0 | 8.0 | 0.11 | 0.28 | 0.28 | 93 | 1009.2 |
| 20260506114508 | 56 | 314 | 1.0 | 5.0 | 0.10 | 0.27 | 0.27 | 93 | 1009.3 |
| 20260506114005 | 56 | 282 | 1.0 | 5.0 | 0.08 | 0.24 | 0.24 | 93 | 1009.4 |
| 20260506113506 | 55 | 308 | 3.0 | 7.0 | 0.08 | 0.23 | 0.23 | 92 | 1009.3 |
| 20260506113014 | 55 | 315 | 3.0 | 7.0 | 0.07 | 0.21 | 0.21 | 92 | 1009.3 |
| 20260506112504 | 55 | 323 | 1.0 | 3.0 | 0.07 | 0.20 | 0.20 | 93 | 1009.2 |
| 20260506112006 | 55 | 284 | 0.0 | 3.0 | 0.08 | 0.20 | 0.20 | 93 | 1009.3 |
| 20260506111526 | 55 | 297 | 0.0 | 4.0 | 0.09 | 0.19 | 0.19 | 93 | 1009.3 |
| 20260506111006 | 55 | 284 | 1.0 | 6.0 | 0.09 | 0.19 | 0.19 | 92 | 1009.3 |
| 20260506110507 | 55 | 324 | 1.0 | 6.0 | 0.10 | 0.18 | 0.18 | 93 | 1009.2 |
| 20260506110026 | 55 | 255 | 2.0 | 3.0 | 0.11 | 0.18 | 0.18 | 93 | 1009.3 |
| 20260506105505 | 55 | 308 | 1.0 | 3.0 | 0.13 | 0.18 | 0.18 | 93 | 1009.2 |
| 20260506105008 | 55 | 213 | 1.0 | 3.0 | 0.14 | 0.17 | 0.17 | 93 | 1009.2 |
| 20260506104517 | 55 | 318 | 0.0 | 3.0 | 0.15 | 0.17 | 0.17 | 92 | 1009.0 |
| 20260506104007 | 55 | 360 | 0.0 | 3.0 | 0.15 | 0.16 | 0.16 | 92 | 1009.0 |
| 20260506103503 | 55 | 360 | 0.0 | 3.0 | 0.15 | 0.15 | 0.15 | 91 | 1009.0 |
| 20260506103011 | 55 | 5 | 0.0 | 3.0 | 0.14 | 0.14 | 0.14 | 91 | 1009.2 |
| 20260506102503 | 55 | 332 | 0.0 | 3.0 | 0.13 | 0.13 | 0.13 | 90 | 1009.2 |
| 20260506102006 | 55 | 352 | 0.0 | 3.0 | 0.12 | 0.12 | 0.12 | 90 | 1009.2 |
| 20260506101517 | 56 | 285 | 1.0 | 3.0 | 0.10 | 0.10 | 0.10 | 89 | 1009.4 |
| 20260506101010 | 56 | 263 | 0.0 | 3.0 | 0.10 | 0.10 | 0.10 | 89 | 1009.3 |
| 20260506100507 | 56 | 305 | 0.0 | 3.0 | 0.08 | 0.08 | 0.08 | 88 | 1009.5 |
| 20260506100031 | 56 | 324 | 1.0 | 2.0 | 0.07 | 0.07 | 0.07 | 87 | 1009.6 |
| 20260506095507 | 56 | 292 | 0.0 | 5.0 | 0.05 | 0.05 | 0.05 | 87 | 1009.5 |
| 20260506095009 | 56 | 329 | 1.0 | 6.0 | 0.03 | 0.03 | 0.03 | 86 | 1009.5 |
| 20260506094524 | 56 | 327 | 1.0 | 7.0 | 0.02 | 0.02 | 0.02 | 87 | 1009.5 |
| 20260506094008 | 55 | 279 | 3.0 | 7.0 | 0.01 | 0.01 | 0.01 | 87 | 1009.5 |
| 20260506093507 | 55 | 309 | 2.0 | 4.0 | 0.00 | 0.00 | 0.00 | 88 | 1009.5 |
| 20260506093021 | 56 | 326 | 1.0 | 3.0 | 0.00 | 0.00 | 0.00 | 88 | 1009.4 |
| 20260506092504 | 56 | 286 | 2.0 | 3.0 | 0.00 | 0.00 | 0.00 | 87 | 1009.4 |
| 20260506092003 | 56 | 257 | 1.0 | 3.0 | 0.00 | 0.00 | 0.00 | 86 | 1009.4 |
| 20260506091510 | 56 | 278 | 1.0 | 4.0 | 0.00 | 0.00 | 0.00 | 86 | 1009.3 |
| 20260506091007 | 56 | 304 | 2.0 | 4.0 | 0.00 | 0.00 | 0.00 | 85 | 1009.3 |
| 20260506090504 | 56 | 325 | 1.0 | 3.0 | 0.00 | 0.00 | 0.00 | 84 | 1009.2 |
| 20260506090017 | 56 | 285 | 1.0 | 5.0 | 0.00 | 0.00 | 0.00 | 84 | 1009.2 |
| 20260506085505 | 56 | 321 | 2.0 | 5.0 | 0.00 | 0.00 | 0.00 | 82 | 1009.3 |
| 20260506085006 | 56 | 333 | 2.0 | 5.0 | 0.00 | 0.00 | 0.00 | 82 | 1009.3 |
| 20260506084533 | 57 | 288 | 2.0 | 4.0 | 0.00 | 0.00 | 0.00 | 81 | 1009.3 |
| 20260506084010 | 57 | 274 | 2.0 | 4.0 | 0.00 | 0.00 | 0.00 | 81 | 1009.4 |
| 20260506083510 | 57 | 296 | 2.0 | 4.0 | 0.00 | 0.00 | 0.00 | 79 | 1009.3 |
| 20260506083027 | 57 | 285 | 2.0 | 5.0 | 0.00 | 0.00 | 0.00 | 77 | 1009.3 |
| 20260506082506 | 58 | 316 | 1.0 | 9.0 | 0.00 | 0.00 | 0.00 | 75 | 1009.3 |
| 20260506082006 | 58 | 283 | 3.0 | 9.0 | 0.00 | 0.00 | 0.00 | 73 | 1009.3 |
| 20260506081521 | 58 | 320 | 2.0 | 4.0 | 0.00 | 0.00 | 0.00 | 73 | 1009.3 |
| 20260506081011 | 58 | 281 | 2.0 | 4.0 | 0.00 | 0.00 | 0.00 | 72 | 1009.2 |
| 20260506080506 | 59 | 296 | 1.0 | 3.0 | 0.00 | 0.00 | 0.00 | 71 | 1009.3 |
| 20260506073509 | 63 | 312 | 3.0 | 7.0 | 0.00 | 0.00 | 0.00 | 56 | 1009.4 |
| 20260506073023 | 63 | 351 | 1.0 | 5.0 | 0.00 | 0.00 | 0.00 | 55 | 1009.3 |
| 20260506072510 | 63 | 229 | 1.0 | 4.0 | 0.00 | 0.00 | 0.00 | 56 | 1009.3 |
| 20260506072007 | 63 | 328 | 2.0 | 7.0 | 0.00 | 0.00 | 0.00 | 56 | 1009.2 |
| 20260506071525 | 63 | 317 | 1.0 | 7.0 | 0.00 | 0.00 | 0.00 | 56 | 1009.2 |
| 20260506071009 | 63 | 319 | 2.0 | 9.0 | 0.00 | 0.00 | 0.00 | 55 | 1009.2 |
| 20260506070507 | 63 | 344 | 2.0 | 9.0 | 0.00 | 0.00 | 0.00 | 55 | 1009.2 |